This is the latest recevied weather packets stored in our database for station/object DW9280. If no packets are shown the sender has not sent any weather packets the latest 10 day(s).
| Time | Temp. | Humidity | Pressure | Rain* | Wind** | Luminosity | Snow |
|---|---|---|---|---|---|---|---|
| 1787943897 | 16.67° C | 93% | 1007.5 hPa | 0 mm | - | 0 W/m² | - |
| 1787943482 | 16.67° C | 93% | 1007.5 hPa | 0 mm | - | 0 W/m² | - |
| 1787943180 | 16.67° C | 93% | 1007.5 hPa | 0 mm | - | 0 W/m² | - |
| 1787942878 | 16.67° C | 93% | 1007.4 hPa | 0 mm | - | 0 W/m² | - |
| 1787942576 | 16.67° C | 93% | 1007.5 hPa | 0 mm | - | 0 W/m² | - |
| 1787942272 | 16.67° C | 93% | 1007.4 hPa | 0 mm | - | 0 W/m² | - |
| 1787941971 | 17.22° C | 93% | 1007.4 hPa | 0 mm | - | 5 W/m² | - |
| 1787941671 | 17.22° C | 93% | 1007.2 hPa | 0 mm | - | 7 W/m² | - |
| 1787941370 | 17.22° C | 93% | 1007.2 hPa | 0 mm | - | 11 W/m² | - |
| 1787941060 | 17.22° C | 93% | 1007.1 hPa | 0 mm | - | 14 W/m² | - |
| 1787940758 | 17.22° C | 93% | 1007.2 hPa | 0 mm | - | 18 W/m² | - |
| 1787940458 | 17.22° C | 93% | 1007.2 hPa | 0 mm | - | 21 W/m² | - |
| 1787940278 | 17.22° C | 93% | 1007.2 hPa | 0 mm | - | 26 W/m² | - |
| 1787939859 | 17.22° C | 93% | 1007.3 hPa | 0 mm | - | 30 W/m² | - |
| 1787939556 | 17.22° C | 93% | 1007.2 hPa | 0 mm | - | 33 W/m² | - |
| 1787939254 | 17.22° C | 93% | 1007.2 hPa | 0 mm | - | 37 W/m² | - |
| 1787938952 | 17.22° C | 93% | 1007.2 hPa | 0 mm | - | 44 W/m² | - |
| 1787938653 | 17.78° C | 94% | 1007.2 hPa | 0 mm | - | 72 W/m² | - |
| 1787938350 | 17.78° C | 94% | 1007.1 hPa | 0 mm | - | 93 W/m² | - |
| 1787938052 | 17.22° C | 94% | 1007.1 hPa | 0 mm | - | 91 W/m² | - |
| 1787937751 | 17.22° C | 94% | 1007.1 hPa | 0 mm | - | 104 W/m² | - |
| 1787937561 | 17.22° C | 94% | 1007 hPa | 0 mm | - | 83 W/m² | - |
| 1787937152 | 17.22° C | 94% | 1007 hPa | 0 mm | - | 104 W/m² | - |
| 1787936853 | 17.22° C | 94% | 1007 hPa | 0 mm | - | 118 W/m² | - |
| 1787936551 | 17.22° C | 94% | 1007 hPa | 0 mm | - | 176 W/m² | - |
* Rain latest hour (hover to see other rain measurements)
** Current wind speed in m/s (hover to see current wind gust speed)